Wind_Speed
4 4 4 4 5 6 7 8 8 8 7 6 8 9 12 14 15 16 16 17 16 15 15 14 13 12 12 12 16 23 28 35 39 45 51 59 64 70 74 73 74 70 69 67 65
5 4 5 5 6 7 8 10 10 10 10 10 12 15 18 19 20 23 23 23 23 23 22 21 19 19 19 19 20 24 27 31 36 41 46 52 62 66 70 72 72 73 75 74 73
8 8 7 8 10 11 12 12 14 15 16 17 17 19 20 22 25 27 27 28 28 29 28 27 27 25 26 27 29 30 30 34 37 40 44 49 55 59 61 68 71 72 72 72 76
12 13 13 17 17 18 19 22 22 22 22 23 24 23 23 25 28 29 30 30 31 32 33 32 32 32 32 33 35 36 35 36 38 43 47 50 52 56 61 64 69 71 76 77 76
17 16 18 20 23 25 26 28 29 29 30 28 27 27 26 27 28 31 33 34 36 37 35 35 35 36 36 38 39 38 40 42 43 45 48 50 53 56 59 58 63 68 70 72 74
24 24 25 26 27 28 29 31 32 32 31 30 30 29 30 30 30 32 34 35 36 36 37 38 39 40 42 43 45 46 44 46 46 47 48 51 55 58 59 61 61 63 67 70 71
31 30 30 31 32 30 30 32 34 35 34 34 34 35 36 34 34 36 36 38 40 40 41 41 42 43 45 46 49 51 50 51 51 51 51 54 57 58 62 64 64 64 65 66 67
33 31 31 32 33 32 34 34 36 37 36 38 38 37 38 39 39 39 39 40 40 41 42 43 44 45 47 48 50 53 54 56 56 56 56 59 62 61 64 65 66 67 68 69 70
35 35 34 36 36 37 37 37 39 40 38 41 41 39 40 41 40 40 41 41 42 43 44 43 45 46 48 51 53 56 59 61 61 60 61 62 65 67 68 70 70 71 72 74 75
37 38 38 39 40 40 40 40 41 41 40 42 42 43 44 44 42 42 43 44 43 43 45 47 48 48 51 55 57 60 63 65 67 66 66 68 68 71 72 73 73 75 78 78 79
41 42 43 42 41 42 43 44 43 46 45 45 45 45 45 46 44 43 44 45 46 46 47 48 50 51 53 53 55 59 61 63 67 69 70 70 69 71 74 77 79 80 81 82 82
44 44 43 43 45 45 46 46 47 46 48 47 46 46 46 45 46 45 44 46 47 46 46 47 46 48 49 52 55 57 60 63 67 68 66 67 65 66 67 68 69 70 70 72 73
46 48 48 49 48 48 49 49 50 49 48 50 45 44 46 46 46 46 45 46 44 40 40 42 45 50 55 58 62 64 65 69 70 71 72 68 67 69 71 72 71 72 72 72 75
50 50 52 52 50 48 51 50 52 51 48 46 44 43 45 47 46 43 42 41 39 40 43 46 49 49 51 56 61 64 67 70 72 73 77 75 73 77 77 77 77 77 77 77 75
53 52 51 52 51 50 50 49 48 47 47 47 44 43 45 41 41 40 42 42 41 42 43 46 49 52 58 57 58 59 60 60 62 66 69 72 75 81 81 83 83 82 81 79 79
53 52 52 50 51 49 50 49 48 46 46 45 41 41 41 38 41 42 43 44 44 45 45 51 53 54 60 60 58 55 54 54 54 56 59 61 64 70 74 79 81 81 82 82 79
52 53 52 51 48 49 51 49 45 44 43 39 38 41 40 39 40 43 45 46 48 52 53 52 54 59 64 64 56 52 52 52 52 51 48 47 53 55 58 63 66 69 72 73 73
49 50 51 50 51 52 51 47 42 40 41 40 39 41 41 40 45 46 48 50 52 57 61 60 63 66 61 62 55 51 49 47 45 45 43 41 46 48 49 51 53 54 57 58 58
53 52 54 53 51 49 45 41 39 38 38 39 40 41 44 45 47 49 52 56 59 61 64 67 68 68 63 58 49 50 50 46 42 38 37 37 35 35 35 36 39 40 43 44 48
52 51 50 48 45 40 40 40 40 41 40 42 44 46 48 49 52 55 57 61 64 67 70 71 71 62 55 49 46 48 48 46 39 30 30 32 29 31 32 32 34 32 35 37 35
43 41 41 41 41 42 42 42 42 42 44 46 49 50 53 54 57 60 63 66 69 73 75 72 59 46 48 43 45 47 45 39 32 26 23 31 29 32 31 28 30 30 26 32 33
47 43 44 45 44 43 44 44 45 46 47 48 50 51 54 58 60 63 67 70 74 74 72 56 47 41 43 40 44 43 38 34 31 27 24 24 28 31 32 31 34 34 29 26 26
51 47 46 48 47 48 48 48 48 49 49 50 52 54 57 60 64 65 68 70 71 67 51 45 39 41 40 39 42 43 34 32 28 26 26 28 27 30 32 31 30 29 31 27 25
54 51 50 51 51 50 50 50 50 51 53 55 57 60 61 59 63 65 67 64 62 55 49 43 36 38 38 37 39 38 31 29 26 26 26 25 30 28 27 26 28 30 25 26 26
60 59 61 59 60 57 54 53 57 56 59 61 62 62 62 58 60 61 56 55 51 52 44 39 34 37 34 35 37 36 29 26 24 25 23 22 25 27 25 27 27 26 29 25 24
64 62 63 63 62 64 65 61 61 62 64 65 63 61 56 58 56 56 53 52 52 49 42 38 34 37 30 30 34 35 28 30 27 26 25 23 25 20 18 21 24 25 25 23 23
69 69 68 70 68 67 66 64 62 64 65 64 65 61 56 57 56 52 55 53 52 51 48 38 37 36 33 32 28 33 26 29 29 28 29 25 22 23 23 25 26 27 27 25 23
Wind_Direction
283 290 297 322 338 341 345 352 351 346 338 310 289 279 295 301 303 306 308 308 309 307 301 300 296 289 275 269 264 257 251 245 246 245 244 244 246 246 246 250 252 255 257 250 250
290 291 297 307 314 322 317 317 316 313 304 297 292 283 282 288 290 294 296 298 299 297 294 293 287 280 274 267 264 262 257 252 249 248 246 246 247 249 250 253 254 255 257 256 257
275 276 283 293 302 304 309 305 305 303 299 296 295 288 282 278 279 280 280 285 286 287 289 288 285 281 274 270 267 265 263 255 254 253 250 248 248 249 251 251 250 250 250 250 252
281 274 281 294 298 300 300 301 302 301 298 297 295 291 284 278 276 277 279 278 277 280 282 280 279 277 272 269 266 264 262 260 256 257 256 253 252 251 251 254 255 257 257 252 249
287 282 280 292 294 295 296 299 302 301 299 298 296 292 288 283 279 277 277 276 277 280 281 281 281 280 278 275 272 267 266 261 255 255 258 260 259 256 255 256 257 257 257 256 255
285 283 283 286 292 293 293 295 296 297 297 298 296 295 293 289 287 284 283 283 281 278 276 277 278 278 278 276 275 272 267 264 260 257 257 258 259 259 258 256 256 257 258 257 257
281 283 284 287 289 291 290 292 294 296 298 296 295 295 292 290 289 286 285 285 284 282 282 281 279 275 273 273 270 269 268 266 264 262 259 260 259 259 259 258 258 258 258 259 259
281 281 282 283 286 288 290 292 293 294 296 295 295 295 294 294 291 287 285 284 283 282 282 282 280 278 276 275 273 272 271 270 269 267 264 260 260 259 261 260 259 259 259 257 257
280 282 281 282 285 288 290 292 293 295 295 296 296 296 295 295 293 290 289 288 287 285 284 282 280 278 276 274 272 272 272 272 271 269 268 266 264 262 261 261 262 262 260 260 259
278 281 282 284 287 290 291 292 293 293 295 296 296 297 296 296 293 290 288 289 287 286 285 284 281 279 278 277 275 273 272 272 271 267 265 264 263 264 265 265 263 263 262 262 262
276 280 283 284 286 290 293 294 293 295 295 296 296 297 296 295 293 293 291 288 288 287 286 285 284 282 281 279 279 279 278 276 274 273 270 266 264 264 263 264 264 264 263 263 264
276 279 281 282 286 290 291 292 293 292 295 295 297 298 296 294 293 293 291 290 290 289 289 289 291 291 288 285 283 280 279 278 276 275 274 275 274 272 270 266 266 266 266 266 266
277 278 280 283 285 288 290 293 292 292 292 293 295 294 293 292 292 293 292 290 289 290 293 294 294 295 293 291 287 284 282 280 276 276 274 273 274 272 270 267 266 267 269 268 268
275 276 279 283 285 287 289 291 292 292 293 293 293 293 292 293 292 292 290 292 295 298 300 303 302 301 301 297 290 288 285 282 277 274 273 274 270 269 267 267 266 266 267 267 266
276 277 278 281 282 284 286 289 291 290 291 292 292 291 292 290 291 292 295 296 297 300 305 306 308 307 307 305 299 292 289 285 280 276 275 273 271 268 267 266 266 266 266 267 266
274 276 277 278 281 282 286 289 292 292 290 290 290 287 288 288 290 291 294 300 301 302 306 308 309 310 320 314 308 300 292 286 283 282 277 275 272 269 268 268 268 267 267 267 267
273 275 276 279 281 284 289 291 292 290 289 285 285 286 288 289 292 295 299 301 304 306 306 308 309 312 319 320 311 301 297 296 293 292 288 282 278 274 271 270 269 268 267 267 266
273 274 276 278 281 285 288 289 288 285 284 282 284 287 287 289 295 296 300 302 303 306 308 312 315 317 319 320 313 308 304 303 302 301 293 282 279 276 274 273 272 272 270 268 266
271 273 277 280 281 283 282 281 281 282 281 282 285 289 294 296 297 297 299 302 303 308 314 316 316 317 318 317 315 314 314 314 312 307 300 294 292 290 288 285 278 275 272 271 270
274 274 276 276 276 275 275 276 279 282 282 284 290 294 296 298 301 304 304 307 309 312 313 313 314 314 314 312 313 319 316 316 315 310 306 302 308 304 299 296 289 286 285 280 275
274 274 274 272 273 274 275 280 282 284 286 290 295 297 300 305 307 308 308 310 311 312 311 311 313 309 311 308 309 316 316 316 313 311 308 301 309 306 307 304 297 294 286 282 278
272 272 273 272 272 272 277 280 283 287 290 293 296 300 304 306 309 309 309 310 311 311 311 309 306 305 308 308 312 316 319 318 316 308 303 298 306 311 311 313 314 307 296 293 279
269 270 271 272 273 275 278 282 285 287 290 291 294 299 302 305 305 308 307 307 309 312 309 304 303 305 309 307 312 314 319 316 312 306 310 312 312 311 312 311 307 305 299 293 291
266 268 272 274 274 277 280 283 285 285 286 290 295 297 301 301 301 305 306 307 310 316 307 297 298 301 310 306 309 307 313 310 306 310 314 313 310 309 310 309 317 318 303 293 297
269 270 270 273 275 277 278 279 281 281 284 288 291 293 297 298 299 301 307 307 310 319 309 300 297 300 308 304 304 306 309 306 297 306 311 314 310 315 323 323 321 324 315 300 298
263 267 266 271 273 275 276 276 279 281 284 287 291 293 295 294 296 298 304 307 310 317 312 296 294 297 299 303 300 307 308 306 310 312 310 313 318 332 334 321 321 327 326 312 302
264 269 265 269 270 271 271 272 276 279 281 284 289 291 295 293 295 295 305 309 308 311 312 304 300 297 298 304 296 301 303 301 307 310 308 307 316 324 340 346 337 327 330 328 313
Height
10861 10861 10860 10860 10859 10859 10858 10858 10857 10857 10857 10857 10856 10856 10855 10855 10855 10854 10854 10853 10853 10852 10851 10851 10851 10851 10851 10851 10850 10850 10850 10852 10854 10856 10859 10860 10861 10864 10867 10871 10874 10877 10879 10881 10883
10860 10860 10859 10859 10859 10858 10857 10856 10856 10856 10856 10855 10855 10854 10853 10852 10852 10851 10851 10850 10849 10848 10848 10848 10848 10847 10847 10847 10845 10845 10845 10846 10847 10847 10848 10851 10851 10854 10859 10860 10863 10867 10867 10869 10872
10859 10858 10858 10857 10857 10856 10856 10855 10854 10853 10853 10852 10852 10850 10849 10847 10847 10846 10846 10845 10844 10842 10842 10842 10842 10841 10841 10840 10839 10839 10839 10838 10839 10839 10839 10841 10842 10847 10845 10843 10847 10848 10855 10856 10855
10857 10856 10855 10854 10853 10853 10852 10851 10850 10849 10848 10848 10847 10846 10845 10842 10841 10839 10839 10838 10837 10836 10836 10835 10835 10834 10834 10833 10832 10831 10830 10830 10831 10829 10828 10829 10831 10832 10831 10832 10835 10837 10839 10843 10842
10854 10854 10853 10851 10850 10849 10847 10846 10845 10844 10842 10842 10841 10840 10839 10837 10836 10833 10832 10831 10830 10829 10828 10828 10827 10826 10824 10823 10821 10821 10821 10820 10821 10819 10818 10819 10819 10818 10819 10824 10820 10819 10821 10823 10825
10849 10848 10848 10846 10845 10844 10842 10841 10839 10838 10836 10836 10834 10833 10832 10831 10830 10828 10825 10823 10822 10821 10820 10820 10819 10817 10815 10814 10811 10808 10810 10808 10808 10810 10810 10808 10805 10804 10807 10806 10808 10807 10806 10807 10807
10843 10842 10842 10841 10839 10838 10837 10835 10833 10831 10830 10828 10827 10825 10823 10823 10822 10819 10818 10816 10813 10811 10811 10810 10809 10807 10805 10802 10799 10796 10797 10796 10797 10797 10800 10796 10793 10795 10791 10792 10793 10795 10794 10793 10792
10836 10836 10835 10833 10832 10831 10830 10829 10826 10825 10824 10820 10819 10818 10814 10813 10811 10809 10808 10806 10804 10801 10801 10799 10797 10794 10792 10790 10788 10784 10782 10781 10782 10782 10784 10783 10780 10782 10776 10776 10778 10777 10777 10776 10775
10829 10828 10828 10826 10825 10824 10822 10822 10819 10817 10816 10812 10810 10809 10806 10804 10802 10799 10797 10796 10794 10791 10790 10789 10786 10784 10781 10778 10776 10772 10768 10767 10767 10768 10768 10769 10765 10763 10763 10760 10760 10760 10758 10757 10757
10822 10820 10820 10819 10818 10816 10814 10813 10811 10808 10807 10804 10801 10799 10797 10793 10791 10790 10787 10784 10783 10782 10778 10775 10773 10771 10767 10763 10760 10757 10753 10749 10746 10750 10750 10748 10749 10745 10744 10744 10745 10742 10739 10738 10738
10813 10812 10811 10811 10810 10807 10806 10804 10803 10799 10798 10795 10793 10790 10785 10781 10779 10779 10777 10774 10770 10768 10767 10763 10759 10756 10754 10750 10745 10739 10737 10733 10727 10725 10726 10728 10733 10729 10726 10724 10723 10720 10719 10717 10716
10804 10803 10802 10802 10801 10798 10796 10795 10793 10791 10787 10786 10784 10779 10774 10771 10768 10767 10766 10762 10760 10757 10754 10750 10747 10742 10739 10734 10729 10725 10720 10714 10708 10707 10708 10707 10712 10709 10707 10705 10703 10700 10700 10698 10697
10796 10795 10793 10791 10791 10789 10786 10785 10781 10781 10779 10775 10775 10770 10764 10760 10758 10757 10754 10751 10749 10747 10744 10740 10737 10731 10725 10719 10712 10707 10704 10697 10693 10687 10685 10690 10692 10686 10683 10681 10683 10681 10681 10681 10680
10784 10786 10784 10779 10780 10780 10776 10774 10770 10768 10767 10764 10763 10760 10755 10749 10746 10745 10742 10740 10739 10736 10733 10728 10724 10719 10712 10704 10695 10689 10683 10676 10673 10671 10663 10666 10671 10661 10659 10658 10659 10659 10660 10658 10660
10773 10774 10773 10771 10769 10768 10766 10764 10761 10758 10756 10753 10753 10749 10746 10740 10736 10735 10732 10730 10728 10726 10723 10716 10710 10703 10696 10688 10681 10672 10663 10657 10652 10650 10647 10644 10644 10633 10634 10633 10636 10636 10636 10636 10635
10762 10761 10761 10760 10759 10757 10755 10754 10752 10749 10745 10742 10743 10739 10736 10734 10729 10726 10724 10721 10717 10714 10714 10706 10697 10688 10677 10670 10662 10652 10644 10640 10635 10632 10629 10624 10619 10614 10613 10610 10609 10610 10612 10612 10615
10751 10749 10749 10748 10747 10747 10745 10743 10742 10739 10735 10732 10732 10727 10728 10726 10721 10717 10715 10711 10707 10701 10700 10698 10688 10677 10664 10654 10648 10636 10629 10624 10619 10615 10611 10608 10600 10598 10595 10591 10589 10589 10590 10592 10594
10740 10738 10736 10737 10736 10735 10734 10732 10732 10729 10727 10724 10723 10719 10718 10717 10713 10709 10705 10699 10696 10689 10682 10680 10670 10663 10654 10644 10631 10623 10616 10612 10606 10599 10593 10592 10585 10580 10578 10576 10574 10574 10574 10574 10576
10728 10728 10725 10725 10724 10724 10723 10722 10722 10721 10719 10716 10713 10712 10708 10706 10703 10700 10695 10689 10683 10678 10670 10664 10658 10649 10639 10630 10623 10613 10604 10599 10593 10588 10579 10574 10572 10569 10567 10564 10563 10562 10560 10561 10559
10716 10716 10714 10713 10713 10712 10712 10712 10711 10711 10709 10705 10704 10701 10699 10696 10692 10687 10683 10676 10670 10664 10656 10648 10645 10635 10629 10621 10614 10607 10597 10590 10585 10580 10572 10565 10565 10562 10558 10556 10553 10553 10550 10548 10547
10704 10705 10705 10704 10704 10702 10702 10701 10700 10700 10698 10695 10693 10690 10686 10684 10679 10674 10669 10663 10657 10649 10643 10634 10628 10625 10617 10612 10607 10600 10591 10583 10577 10573 10570 10560 10560 10555 10552 10550 10546 10544 10542 10537 10535
10691 10694 10692 10693 10694 10693 10692 10692 10690 10689 10687 10685 10681 10678 10676 10672 10667 10662 10656 10651 10643 10636 10627 10621 10616 10614 10609 10603 10597 10592 10585 10578 10572 10568 10565 10561 10555 10549 10545 10543 10539 10535 10533 10531 10529
10678 10680 10680 10680 10682 10682 10682 10682 10679 10677 10675 10672 10671 10668 10665 10662 10656 10653 10645 10638 10631 10623 10614 10609 10607 10603 10600 10595 10590 10583 10579 10572 10567 10563 10559 10554 10551 10546 10542 10539 10535 10530 10525 10523 10521
10663 10667 10666 10668 10668 10670 10669 10669 10668 10664 10661 10661 10660 10655 10653 10649 10644 10641 10635 10626 10619 10611 10604 10598 10598 10595 10592 10587 10583 10578 10574 10568 10562 10558 10555 10551 10544 10543 10538 10534 10529 10523 10519 10517 10515
10645 10649 10651 10654 10654 10656 10656 10656 10654 10653 10649 10648 10649 10646 10640 10636 10633 10629 10623 10616 10611 10603 10595 10589 10588 10585 10585 10581 10576 10570 10567 10565 10559 10555 10552 10549 10543 10538 10533 10528 10524 10519 10514 10511 10509
10628 10631 10634 10637 10637 10639 10640 10641 10640 10637 10635 10634 10634 10632 10630 10624 10621 10617 10613 10606 10600 10596 10589 10582 10580 10576 10576 10574 10570 10564 10560 10556 10553 10549 10547 10544 10538 10535 10530 10525 10519 10514 10509 10505 10503
10609 10612 10615 10617 10619 10621 10623 10623 10624 10623 10622 10621 10618 10618 10615 10611 10608 10604 10599 10594 10591 10584 10581 10575 10572 10568 10564 10566 10564 10560 10556 10551 10546 10545 10541 10539 10535 10530 10525 10521 10516 10509 10504 10500 10497